Location: Ferintosh
(52.7647°N, 112.9692°W)
Time: 03:21:21
(UTC+00:00)

S-56A Canister/Altair - Pass Details

Date: 22 May 2024
Orbit: 637 x 2488 km, 38.9° (Epoch: 23 June)

Event Time Altitude Azimuth Distance (km) Brightness Sun altitude
Rises 15:01:02 0° 238° (WSW) 5,628 11.5 30.1°
Reaches altitude 10° 15:05:34 10° 230° (SW) 4,353 11.1 30.8°
Maximum altitude 15:14:52 32° 175° (S) 2,381 10.5 32.2°
Drops below altitude 10° 15:21:34 10° 116° (ESE) 3,094 11.9 33.2°
Sets 15:24:13 0° 106° (ESE) 3,826 12.2 33.6°
